COSMOS 2251 DEB, 35465

Orbit data source: Space-Track

COSMOS 2251 DEB, 35465 is space debris in LEO originally from a launch on Wed, 16 Jun 1993 UTC launched from the Plesetsk Missile And Space Complex (PKMTR). The debris from Iridium 33, an American commercial communications satellite, has been tracked extensively since its accidental collision with the defunct Russian satellite Cosmos 2251 in 2009. This event, occurring at high speed in low Earth orbit (LEO), generated thousands of pieces of space debris, significantly increasing the risk of further collisions. The Iridium 33 debris cloud has impacted space traffic management and orbital debris mitigation strategies, making it a subject of ongoing study in space situational awareness.

Loading next visibility...
Identifier
35465, 1993-036ALK
Orbit
LEO
Country
Flag of CISCIS
Related business
Manufacturer
Unknown
Mission
Spacecraft
Bus & Motor
Unknown
Mass
Unknown
Launch date (UTC)
1993-06-16 (33 years ago)
Launch vehicle
Unknown
Launch site
Plesetsk Missile And Space Complex (PKMTR)
Object type
Payload
Rocket body
Debris
Shape & HBR
Unknown shape, 0.1 m
Radar Cross Section
Small (<0.1 m²)

Expand to show TLE details & history
Last TLE update: 3 days ago

TLE from 3 days ago
0 COSMOS 2251 DEB
1 35465U 93036ALK 26262.34880534  .00000839  00000-0  24257-3 0  9990
2 35465  73.9996  33.3391 0062820 128.0653 232.6196 14.44989177912941
Epoch: 2026-09-19T08:22Z
TLE epoch observation values (Epoch: 2026-09-19T08:22:16.781Z)
Latitude
0.00001°
Longitude
-90.48944°
Altitude
772.018 km
Speed
7.454 km/s
True Right ascension
02h 13m 21s
True Declination
0° 00' 00"
Sunlit
Object was in full shadow at epoch
Visualization orbit readout
Latitude
Unknown
Longitude
Unknown
Altitude
Unknown
Speed
Unknown
Apparent Right ascension
Unknown
Apparent Declination
Unknown
Sunlit
N/A
Visualization observer readout
Local Sidereal Time
20:00:42
Azimuth
Unknown
Elevation
Unknown
Doppler factor
Unknown
Orbital elements
Apogee altitude
784.393 km
Perigee altitude
694.965 km
Semi-major axis
7,117.816 km
Eccentricity
0.00628
Inclination
73.9996°
RAAN
33.3391°
Arg. of periapsis
128.0653°
True anomaly
232.0503°
Mean anomaly
232.6196°
Eccentric anomaly
232.33468°
Mean motion
3.61429 °/min
Orbital period
99.6 mins
BSTAR
0.00024257

Documentation

Showing up to 5 results
|